DAL1336 KORF-KATL

Flight info

Callsign DAL1336
Flight time 1h 24m
Altitude 32000
Route NUTIY1 EYOBI DCT CEELY Q172 YUTEE DCT SKWKR JJEDI4
Aircraft B739/M-SDE2E3FGHIRWXY/LB1

Departure

Time 2026-05-04 23:04
Airport Norfolk International Airport (KORF)

Arrival

Time 2026-05-05 00:29
Airport Hartsfield Jackson Atlanta International Airport (KATL)
Time Latitude Longitude Altitude Speed Heading
2026-05-04 22:38 36.89716 -76.20119 34 ft 0 kts 222°
2026-05-04 22:54 36.89723 -76.20109 34 ft 2 kts 228°
2026-05-04 22:54 36.89734 -76.20094 34 ft 2 kts 228°
2026-05-04 22:54 36.89745 -76.20079 34 ft 2 kts 228°
2026-05-04 22:54 36.89755 -76.20067 34 ft 2 kts 199°
2026-05-04 22:55 36.89765 -76.20068 34 ft 2 kts 128°
2026-05-04 22:55 36.89771 -76.20086 34 ft 2 kts 112°
2026-05-04 22:55 36.89777 -76.20104 34 ft 2 kts 112°
2026-05-04 22:55 36.89783 -76.20120 34 ft 0 kts 112°
2026-05-04 22:58 36.89783 -76.20119 34 ft 1 kts 112°
2026-05-04 22:58 36.89780 -76.20113 34 ft 0 kts 112°
2026-05-04 22:58 36.89768 -76.20075 34 ft 6 kts 112°
2026-05-04 22:59 36.89756 -76.20040 34 ft 3 kts 112°
2026-05-04 22:59 36.89740 -76.19992 34 ft 10 kts 112°
2026-05-04 22:59 36.89765 -76.19907 34 ft 15 kts 35°
2026-05-04 22:59 36.89870 -76.19808 34 ft 22 kts 37°
2026-05-04 23:00 36.89981 -76.19701 34 ft 18 kts 37°
2026-05-04 23:00 36.90062 -76.19622 34 ft 12 kts 38°
2026-05-04 23:00 36.90121 -76.19564 34 ft 12 kts 38°
2026-05-04 23:00 36.90214 -76.19505 34 ft 18 kts 25°
2026-05-04 23:01 36.90334 -76.19405 34 ft 24 kts 38°
2026-05-04 23:01 36.90464 -76.19277 34 ft 22 kts 38°
2026-05-04 23:01 36.90592 -76.19157 34 ft 12 kts 38°
2026-05-04 23:01 36.90606 -76.19073 34 ft 13 kts 124°
2026-05-04 23:02 36.90587 -76.19041 34 ft 0 kts 126°
2026-05-04 23:02 36.90586 -76.19040 34 ft 1 kts 126°
2026-05-04 23:03 36.90558 -76.18993 34 ft 13 kts 128°
2026-05-04 23:03 36.90502 -76.18981 34 ft 7 kts 212°
2026-05-04 23:03 36.90498 -76.18985 34 ft 0 kts 214°
2026-05-04 23:03 36.90490 -76.18992 34 ft 13 kts 217°
2026-05-04 23:04 36.90228 -76.19240 34 ft 80 kts 219°
2026-05-04 23:04 36.89627 -76.19824 34 ft 137 kts 217°
2026-05-04 23:04 36.88834 -76.20606 612 ft 135 kts 218°
2026-05-04 23:04 36.88119 -76.21265 1516 ft 124 kts 213°
2026-05-04 23:05 36.87347 -76.21903 1940 ft 145 kts 213°
2026-05-04 23:05 36.86415 -76.22603 2382 ft 165 kts 215°
2026-05-04 23:05 36.85492 -76.23494 3045 ft 169 kts 221°
2026-05-04 23:05 36.84614 -76.24412 3899 ft 162 kts 221°
2026-05-04 23:06 36.83757 -76.25265 4686 ft 159 kts 228°
2026-05-04 23:06 36.83195 -76.26525 5032 ft 177 kts 252°
2026-05-04 23:06 36.82924 -76.28137 5346 ft 203 kts 258°
2026-05-04 23:06 36.82632 -76.29993 5658 ft 231 kts 259°
2026-05-04 23:07 36.82314 -76.32037 6246 ft 244 kts 259°
2026-05-04 23:07 36.81991 -76.34110 7294 ft 242 kts 260°
2026-05-04 23:07 36.81663 -76.36202 8143 ft 250 kts 261°
2026-05-04 23:07 36.81321 -76.38379 8901 ft 259 kts 262°
2026-05-04 23:08 36.80972 -76.40604 9722 ft 265 kts 263°
2026-05-04 23:08 36.80615 -76.42861 10498 ft 271 kts 263°
2026-05-04 23:08 36.80248 -76.45214 11158 ft 283 kts 264°
2026-05-04 23:08 36.79862 -76.47692 11663 ft 299 kts 263°
2026-05-04 23:09 36.79452 -76.50310 12082 ft 317 kts 263°
2026-05-04 23:09 36.79016 -76.53091 12481 ft 334 kts 262°
2026-05-04 23:09 36.78562 -76.55983 13070 ft 344 kts 262°
2026-05-04 23:09 36.78097 -76.58935 13766 ft 349 kts 261°
2026-05-04 23:10 36.77627 -76.61926 14530 ft 352 kts 262°
2026-05-04 23:10 36.77173 -76.64951 15285 ft 356 kts 262°
2026-05-04 23:10 36.76708 -76.68005 16003 ft 360 kts 262°
2026-05-04 23:10 36.76231 -76.71085 16706 ft 363 kts 262°
2026-05-04 23:11 36.75743 -76.74189 17374 ft 367 kts 261°
2026-05-04 23:11 36.75247 -76.77324 18021 ft 370 kts 261°
2026-05-04 23:11 36.74749 -76.80450 18625 ft 375 kts 261°
2026-05-04 23:11 36.74237 -76.83652 19201 ft 378 kts 261°
2026-05-04 23:12 36.73712 -76.86926 19835 ft 381 kts 261°
2026-05-04 23:12 36.73191 -76.90171 20425 ft 383 kts 261°
2026-05-04 23:12 36.72671 -76.93399 20986 ft 386 kts 261°
2026-05-04 23:12 36.72137 -76.96689 21529 ft 388 kts 260°
2026-05-04 23:13 36.71396 -76.99959 22054 ft 393 kts 253°
2026-05-04 23:13 36.70347 -77.03115 22559 ft 397 kts 247°
2026-05-04 23:13 36.69072 -77.06193 23048 ft 400 kts 244°
2026-05-04 23:13 36.67700 -77.09222 23522 ft 403 kts 243°
2026-05-04 23:14 36.66289 -77.12253 23976 ft 405 kts 243°
2026-05-04 23:14 36.64876 -77.15294 24419 ft 407 kts 243°
2026-05-04 23:14 36.63468 -77.18355 24857 ft 408 kts 243°
2026-05-04 23:14 36.62051 -77.21421 25278 ft 410 kts 243°
2026-05-04 23:15 36.60623 -77.24494 25683 ft 411 kts 243°
2026-05-04 23:15 36.59183 -77.27584 26060 ft 413 kts 243°
2026-05-04 23:15 36.57735 -77.30684 26387 ft 416 kts 243°
2026-05-04 23:15 36.56276 -77.33802 26764 ft 416 kts 243°
2026-05-04 23:16 36.54813 -77.36923 27088 ft 418 kts 243°
2026-05-04 23:16 36.53343 -77.40057 27412 ft 420 kts 243°
2026-05-04 23:16 36.51873 -77.43189 27735 ft 421 kts 243°
2026-05-04 23:16 36.50409 -77.46306 28042 ft 422 kts 243°
2026-05-04 23:17 36.48925 -77.49466 28364 ft 423 kts 243°
2026-05-04 23:17 36.47443 -77.52615 28788 ft 420 kts 243°
2026-05-04 23:17 36.45973 -77.55737 29218 ft 418 kts 243°
2026-05-04 23:17 36.44518 -77.58860 29630 ft 415 kts 243°
2026-05-04 23:18 36.43068 -77.61958 30016 ft 413 kts 243°
2026-05-04 23:18 36.41619 -77.65040 30394 ft 411 kts 243°
2026-05-04 23:18 36.40173 -77.68106 30730 ft 410 kts 243°
2026-05-04 23:18 36.38725 -77.71169 30980 ft 411 kts 243°
2026-05-04 23:19 36.37297 -77.74185 31249 ft 411 kts 243°
2026-05-04 23:19 36.35847 -77.77241 31543 ft 410 kts 243°
2026-05-04 23:19 36.34402 -77.80285 31853 ft 409 kts 243°
2026-05-04 23:19 36.32954 -77.83335 32013 ft 411 kts 243°
2026-05-04 23:20 36.29607 -77.89143 32024 ft 421 kts 229°
2026-05-04 23:20 36.24770 -77.93358 32027 ft 428 kts 215°
2026-05-04 23:21 36.19514 -77.96855 32023 ft 430 kts 213°
2026-05-04 23:21 36.14179 -78.00287 32024 ft 433 kts 213°
2026-05-04 23:22 36.08854 -78.03687 32022 ft 433 kts 213°
2026-05-04 23:22 36.03496 -78.07092 32018 ft 433 kts 213°
2026-05-04 23:23 35.98142 -78.10487 32022 ft 433 kts 213°
2026-05-04 23:23 35.92782 -78.13895 32023 ft 433 kts 213°
2026-05-04 23:24 35.87426 -78.17287 32023 ft 433 kts 213°
2026-05-04 23:24 35.82057 -78.20677 32023 ft 433 kts 213°
2026-05-04 23:25 35.76720 -78.24040 32023 ft 433 kts 213°
2026-05-04 23:25 35.71350 -78.27418 32023 ft 433 kts 213°
2026-05-04 23:26 35.65985 -78.30786 32023 ft 433 kts 212°
2026-05-04 23:26 35.60622 -78.34147 32023 ft 431 kts 212°
2026-05-04 23:27 35.55272 -78.37495 32023 ft 432 kts 212°
2026-05-04 23:27 35.49947 -78.40823 32024 ft 432 kts 212°
2026-05-04 23:28 35.44584 -78.44169 32026 ft 432 kts 212°
2026-05-04 23:28 35.39225 -78.47507 32026 ft 432 kts 212°
2026-05-04 23:29 35.33858 -78.50846 32027 ft 432 kts 212°
2026-05-04 23:29 35.28485 -78.54183 32024 ft 432 kts 212°
2026-05-04 23:30 35.23114 -78.57514 32021 ft 432 kts 212°
2026-05-04 23:30 35.17728 -78.60851 32017 ft 434 kts 212°
2026-05-04 23:31 35.12364 -78.64167 32023 ft 435 kts 212°
2026-05-04 23:31 35.06968 -78.67502 32028 ft 434 kts 212°
2026-05-04 23:32 35.01580 -78.70836 32022 ft 433 kts 212°
2026-05-04 23:32 34.96194 -78.74152 32026 ft 433 kts 212°
2026-05-04 23:33 34.90838 -78.77441 32023 ft 434 kts 212°
2026-05-04 23:33 34.85434 -78.80754 32019 ft 434 kts 212°
2026-05-04 23:34 34.80095 -78.84181 32019 ft 431 kts 217°
2026-05-04 23:34 34.75331 -78.88520 32035 ft 426 kts 225°
2026-05-04 23:35 34.70899 -78.93307 32045 ft 428 kts 226°
2026-05-04 23:35 34.66441 -78.98146 32049 ft 429 kts 226°
2026-05-04 23:36 34.62022 -79.02933 32048 ft 428 kts 226°
2026-05-04 23:36 34.57571 -79.07747 32053 ft 428 kts 226°
2026-05-04 23:37 34.53116 -79.12559 32055 ft 428 kts 226°
2026-05-04 23:37 34.49363 -79.16633 32055 ft 427 kts 226°
2026-05-04 23:38 34.44925 -79.21442 32056 ft 428 kts 226°
2026-05-04 23:38 34.40496 -79.26229 32048 ft 425 kts 226°
2026-05-04 23:39 34.36055 -79.31018 32042 ft 430 kts 226°
2026-05-04 23:39 34.31566 -79.35832 32033 ft 432 kts 225°
2026-05-04 23:40 34.27100 -79.40613 32029 ft 430 kts 226°
2026-05-04 23:40 34.23024 -79.45795 32032 ft 422 kts 242°
2026-05-04 23:41 34.20824 -79.52286 32021 ft 417 kts 257°
2026-05-04 23:41 34.19699 -79.57944 32011 ft 415 kts 261°
2026-05-04 23:42 34.18584 -79.64794 32004 ft 415 kts 261°
2026-05-04 23:42 34.17467 -79.71640 32005 ft 415 kts 261°
2026-05-04 23:43 34.16355 -79.78433 32006 ft 414 kts 261°
2026-05-04 23:43 34.15233 -79.85247 32004 ft 413 kts 260°
2026-05-04 23:44 34.14108 -79.92038 32007 ft 411 kts 260°
2026-05-04 23:44 34.12980 -79.98821 32020 ft 412 kts 260°
2026-05-04 23:45 34.11849 -80.05593 32023 ft 412 kts 260°
2026-05-04 23:45 34.10714 -80.12374 32019 ft 412 kts 260°
2026-05-04 23:46 34.09592 -80.19164 32022 ft 413 kts 260°
2026-05-04 23:46 34.08470 -80.25966 32024 ft 413 kts 260°
2026-05-04 23:47 34.07335 -80.32766 32022 ft 414 kts 260°
2026-05-04 23:47 34.06209 -80.39537 32022 ft 414 kts 260°
2026-05-04 23:48 34.05071 -80.46352 32023 ft 414 kts 260°
2026-05-04 23:48 34.03916 -80.53153 32023 ft 414 kts 260°
2026-05-04 23:49 34.02752 -80.59952 32023 ft 414 kts 260°
2026-05-04 23:49 34.01584 -80.66747 32027 ft 413 kts 260°
2026-05-04 23:50 34.00415 -80.73535 32031 ft 413 kts 260°
2026-05-04 23:50 33.98957 -80.80242 32032 ft 413 kts 255°
2026-05-04 23:51 33.97196 -80.86844 32038 ft 414 kts 254°
2026-05-04 23:51 33.95447 -80.93413 32048 ft 414 kts 254°
2026-05-04 23:52 33.93703 -81.00023 32050 ft 414 kts 254°
2026-05-04 23:52 33.91962 -81.06643 32046 ft 415 kts 254°
2026-05-04 23:53 33.90222 -81.13264 32047 ft 414 kts 254°
2026-05-04 23:53 33.88513 -81.19865 32050 ft 410 kts 255°
2026-05-04 23:54 33.86838 -81.26366 32050 ft 411 kts 255°
2026-05-04 23:54 33.85112 -81.32947 32050 ft 412 kts 255°
2026-05-04 23:55 33.83379 -81.39506 32048 ft 412 kts 254°
2026-05-04 23:56 33.80772 -81.49331 32048 ft 411 kts 254°
2026-05-04 23:56 33.78635 -81.55716 32049 ft 414 kts 245°
2026-05-04 23:57 33.75610 -81.61630 32053 ft 416 kts 239°
2026-05-04 23:57 33.72328 -81.67320 32047 ft 418 kts 238°
2026-05-04 23:58 33.68958 -81.73128 32042 ft 422 kts 238°
2026-05-04 23:58 33.65602 -81.78899 32041 ft 422 kts 238°
2026-05-04 23:59 33.62312 -81.84673 32045 ft 421 kts 242°
2026-05-04 23:59 33.59773 -81.90957 32045 ft 417 kts 251°
2026-05-05 00:00 33.57775 -81.97501 32043 ft 417 kts 252°
2026-05-05 00:00 33.55817 -82.04048 32038 ft 417 kts 252°
2026-05-05 00:01 33.53858 -82.10595 32045 ft 417 kts 252°
2026-05-05 00:01 33.51912 -82.17087 32017 ft 417 kts 252°
2026-05-05 00:02 33.49948 -82.23627 32000 ft 417 kts 252°
2026-05-05 00:02 33.48002 -82.30167 31995 ft 417 kts 252°
2026-05-05 00:03 33.46055 -82.36702 31994 ft 416 kts 252°
2026-05-05 00:03 33.44097 -82.43239 31994 ft 417 kts 252°
2026-05-05 00:04 33.42141 -82.49739 31994 ft 417 kts 252°
2026-05-05 00:04 33.40186 -82.56280 31879 ft 414 kts 252°
2026-05-05 00:04 33.39213 -82.59510 31286 ft 411 kts 252°
2026-05-05 00:05 33.38245 -82.62711 30698 ft 407 kts 252°
2026-05-05 00:05 33.37285 -82.65874 30120 ft 403 kts 252°
2026-05-05 00:05 33.36331 -82.69010 29550 ft 399 kts 252°
2026-05-05 00:05 33.35384 -82.72115 28988 ft 395 kts 252°
2026-05-05 00:06 33.34448 -82.75184 28432 ft 391 kts 252°
2026-05-05 00:06 33.33517 -82.78231 27879 ft 388 kts 251°
2026-05-05 00:06 33.32597 -82.81242 27333 ft 384 kts 251°
2026-05-05 00:06 33.31682 -82.84233 26791 ft 381 kts 251°
2026-05-05 00:07 33.30883 -82.87192 26258 ft 377 kts 256°
2026-05-05 00:07 33.30339 -82.90277 25714 ft 373 kts 261°
2026-05-05 00:07 33.29947 -82.93287 25191 ft 370 kts 262°
2026-05-05 00:07 33.29588 -82.96320 24665 ft 367 kts 263°
2026-05-05 00:08 33.29230 -82.99335 24140 ft 364 kts 262°
2026-05-05 00:08 33.28873 -83.02318 23623 ft 361 kts 262°
2026-05-05 00:08 33.28518 -83.05276 23109 ft 358 kts 262°
2026-05-05 00:08 33.28180 -83.08217 22597 ft 356 kts 262°
2026-05-05 00:09 33.27841 -83.11128 22091 ft 353 kts 262°
2026-05-05 00:09 33.27498 -83.14029 21585 ft 351 kts 262°
2026-05-05 00:09 33.27153 -83.16913 21083 ft 348 kts 262°
2026-05-05 00:09 33.26807 -83.19770 20585 ft 346 kts 262°
2026-05-05 00:10 33.26462 -83.22608 20089 ft 344 kts 261°
2026-05-05 00:10 33.26118 -83.25428 19596 ft 342 kts 261°
2026-05-05 00:10 33.25774 -83.28230 19104 ft 340 kts 261°
2026-05-05 00:10 33.25436 -83.30983 18622 ft 337 kts 261°
2026-05-05 00:11 33.25095 -83.33746 18135 ft 335 kts 261°
2026-05-05 00:11 33.24757 -83.36489 17648 ft 333 kts 261°
2026-05-05 00:11 33.24419 -83.39225 17162 ft 331 kts 261°
2026-05-05 00:11 33.24085 -83.41937 16677 ft 329 kts 261°
2026-05-05 00:12 33.23753 -83.44639 16192 ft 328 kts 261°
2026-05-05 00:12 33.23426 -83.47328 15709 ft 326 kts 261°
2026-05-05 00:12 33.23096 -83.50002 15225 ft 325 kts 261°
2026-05-05 00:12 33.22770 -83.52630 14748 ft 323 kts 261°
2026-05-05 00:13 33.22437 -83.55287 14264 ft 325 kts 261°
2026-05-05 00:13 33.22099 -83.57977 13776 ft 330 kts 261°
2026-05-05 00:13 33.21756 -83.60699 13282 ft 333 kts 261°
2026-05-05 00:13 33.21409 -83.63439 12781 ft 335 kts 261°
2026-05-05 00:14 33.21063 -83.66176 12357 ft 330 kts 261°
2026-05-05 00:14 33.20727 -83.68829 12196 ft 317 kts 261°
2026-05-05 00:14 33.20404 -83.71374 12030 ft 301 kts 261°
2026-05-05 00:14 33.20098 -83.73779 11873 ft 286 kts 261°
2026-05-05 00:15 33.19808 -83.76110 11539 ft 282 kts 260°
2026-05-05 00:15 33.19520 -83.78425 11141 ft 281 kts 260°
2026-05-05 00:15 33.19492 -83.80740 10735 ft 281 kts 279°
2026-05-05 00:15 33.20217 -83.82911 10332 ft 283 kts 297°
2026-05-05 00:16 33.21317 -83.84841 10068 ft 278 kts 306°
2026-05-05 00:16 33.22575 -83.86532 9767 ft 275 kts 311°
2026-05-05 00:16 33.23922 -83.88136 9418 ft 273 kts 314°
2026-05-05 00:16 33.25273 -83.89717 9067 ft 271 kts 313°
2026-05-05 00:17 33.26630 -83.91320 8711 ft 269 kts 313°
2026-05-05 00:17 33.27936 -83.92871 8367 ft 267 kts 313°
2026-05-05 00:17 33.29253 -83.94437 8047 ft 265 kts 313°
2026-05-05 00:17 33.30554 -83.95989 7896 ft 265 kts 313°
2026-05-05 00:18 33.31866 -83.97558 7780 ft 271 kts 313°
2026-05-05 00:18 33.33214 -83.99170 7662 ft 274 kts 313°
2026-05-05 00:18 33.34559 -84.00781 7544 ft 273 kts 313°
2026-05-05 00:18 33.36077 -84.02125 7414 ft 274 kts 333°
2026-05-05 00:19 33.37920 -84.02755 7300 ft 278 kts 349°
2026-05-05 00:19 33.39826 -84.02992 7178 ft 279 kts 355°
2026-05-05 00:19 33.41789 -84.03047 7052 ft 278 kts 358°
2026-05-05 00:19 33.43691 -84.03063 6932 ft 276 kts 358°
2026-05-05 00:20 33.45617 -84.03076 6812 ft 276 kts 358°
2026-05-05 00:20 33.47532 -84.03009 6693 ft 276 kts
2026-05-05 00:20 33.49452 -84.02824 6573 ft 277 kts
2026-05-05 00:20 33.51362 -84.02598 6455 ft 276 kts
2026-05-05 00:21 33.53273 -84.02378 6336 ft 275 kts
2026-05-05 00:21 33.55175 -84.02167 6218 ft 275 kts
2026-05-05 00:21 33.57083 -84.01959 6098 ft 273 kts
2026-05-05 00:21 33.58974 -84.01757 5981 ft 272 kts
2026-05-05 00:22 33.60855 -84.01559 5864 ft 271 kts
2026-05-05 00:22 33.62734 -84.01470 5731 ft 269 kts 350°
2026-05-05 00:22 33.64410 -84.02369 5615 ft 264 kts 317°
2026-05-05 00:22 33.65383 -84.04176 5467 ft 259 kts 284°
2026-05-05 00:23 33.65397 -84.06272 5366 ft 254 kts 258°
2026-05-05 00:23 33.65064 -84.08316 5252 ft 245 kts 262°
2026-05-05 00:23 33.64934 -84.10312 5137 ft 234 kts 266°
2026-05-05 00:23 33.64906 -84.12226 5031 ft 225 kts 268°
2026-05-05 00:24 33.64929 -84.13881 4835 ft 223 kts 269°
2026-05-05 00:24 33.64948 -84.15758 4458 ft 225 kts 268°
2026-05-05 00:24 33.64957 -84.17631 4199 ft 222 kts 268°
2026-05-05 00:24 33.64960 -84.19465 3957 ft 219 kts 268°
2026-05-05 00:25 33.64961 -84.21278 3811 ft 214 kts 267°
2026-05-05 00:25 33.64961 -84.23012 3833 ft 203 kts 267°
2026-05-05 00:25 33.64961 -84.24679 3652 ft 198 kts 267°
2026-05-05 00:25 33.64961 -84.26301 3390 ft 195 kts 267°
2026-05-05 00:26 33.64960 -84.27912 3148 ft 190 kts 266°
2026-05-05 00:26 33.64960 -84.29440 2891 ft 177 kts 266°
2026-05-05 00:26 33.64959 -84.30874 2667 ft 162 kts 266°
2026-05-05 00:26 33.64959 -84.32157 2473 ft 152 kts 266°
2026-05-05 00:27 33.64959 -84.33402 2254 ft 147 kts 265°
2026-05-05 00:27 33.64955 -84.34620 2050 ft 146 kts 267°
2026-05-05 00:27 33.64979 -84.35832 1875 ft 145 kts 268°
2026-05-05 00:27 33.65000 -84.37040 1689 ft 144 kts 264°
2026-05-05 00:28 33.64978 -84.38261 1505 ft 149 kts 264°
2026-05-05 00:28 33.64957 -84.39504 1295 ft 148 kts 266°
2026-05-05 00:28 33.64954 -84.40313 1168 ft 146 kts 266°
2026-05-05 00:28 33.64959 -84.41509 1045 ft 139 kts 267°
2026-05-05 00:29 33.64951 -84.42578 1034 ft 107 kts 269°
2026-05-05 00:29 33.64951 -84.43354 1034 ft 48 kts 268°
2026-05-05 00:29 33.64947 -84.43672 1034 ft 22 kts 266°
2026-05-05 00:29 33.64927 -84.43732 1034 ft 0 kts 225°
2026-05-05 00:30 33.64925 -84.43734 1034 ft 2 kts 223°
2026-05-05 00:30 33.64892 -84.43749 1034 ft 8 kts 186°
2026-05-05 00:30 33.64848 -84.43805 1034 ft 13 kts 261°
2026-05-05 00:30 33.64825 -84.43867 1034 ft 5 kts 174°
2026-05-05 00:31 33.64766 -84.43827 1034 ft 14 kts 166°
2026-05-05 00:31 33.64660 -84.43820 1034 ft 17 kts 180°
2026-05-05 00:31 33.64538 -84.43821 1034 ft 18 kts 180°
2026-05-05 00:31 33.64452 -84.43803 1034 ft 10 kts 156°
2026-05-05 00:32 33.64404 -84.43789 1034 ft 5 kts 179°
2026-05-05 00:32 33.64356 -84.43792 1034 ft 8 kts 205°
2026-05-05 00:32 33.64345 -84.43851 1034 ft 7 kts 271°
2026-05-05 00:32 33.64346 -84.43865 1034 ft 0 kts 270°